Location: Oshawa
(43.9000°N, 78.8670°W)
Time: 12:49:51
(UTC-04:00)

Cosmos 839 Rocket - Visible Passes

Search period start: 31 March 2015 00:00
Search period end: 10 April 2015 00:00
Orbit: 964 x 2088 km, 65.9° (Epoch: 28 March)

Date Brightness Start Highest point End Pass type
(mag) Time Alt. Az. Time Alt. Az. Time Alt. Az.
31 Mar 5.7 01:05:00 29° NNW 01:05:00 29° NNW 01:10:30 10° NNE visible
31 Mar 6.7 03:04:22 10° NW 03:07:40 13° N 03:11:10 10° NNE visible
31 Mar 6.8 05:06:12 10° NNW 05:11:32 20° NNE 05:17:53 10° ENE visible
31 Mar 6.0 22:26:55 15° NE 22:26:55 15° NE 22:28:09 10° NE visible
01 Apr 5.3 00:23:26 37° NNW 00:23:26 37° NNW 00:28:40 10° NNE visible
01 Apr 6.6 02:21:01 10° NW 02:24:47 15° NNW 02:28:46 10° NNE visible
01 Apr 6.8 04:24:15 10° NNW 04:28:43 16° NNE 04:33:56 10° NE visible
01 Apr 6.3 06:23:53 10° NNW 06:31:29 42° NE 06:41:03 10° ESE visible
01 Apr 6.1 21:45:10 11° ENE 21:45:10 11° ENE 21:45:31 10° ENE visible
01 Apr 4.9 23:41:41 46° N 23:41:41 46° N 23:46:47 10° NNE visible
02 Apr 6.5 01:38:12 12° WNW 01:41:59 18° NNW 01:46:41 10° NNE visible
02 Apr 6.9 03:42:06 10° NNW 03:45:50 14° N 03:50:03 10° NE visible
02 Apr 6.6 05:42:07 10° NNW 05:49:05 32° NE 05:57:45 10° E visible
02 Apr 4.4 22:59:38 54° NNE 22:59:38 54° NNE 23:04:50 10° NNE visible
03 Apr 6.2 00:56:06 16° WNW 00:59:19 23° NNW 01:04:45 10° NNE visible
03 Apr 6.9 02:59:34 10° NNW 03:02:54 13° N 03:06:32 10° NNE visible
03 Apr 6.8 05:00:19 10° NNW 05:06:33 25° NNE 05:14:08 10° E visible
03 Apr 4.1 22:16:57 54° E 22:16:57 54° E 22:22:46 10° NE visible
04 Apr 5.7 00:13:20 19° W 00:16:48 30° NW 00:22:54 10° NNE visible
04 Apr 6.8 02:16:34 10° NW 02:19:58 14° N 02:23:35 10° NNE visible
04 Apr 6.9 04:18:28 10° NNW 04:23:51 20° NNE 04:30:17 10° ENE visible
04 Apr 5.9 06:17:59 10° NNW 06:26:06 55° NE 06:36:25 10° SE visible
04 Apr 4.5 21:29:04 10° S 21:34:32 36° ESE 21:40:29 10° NE visible
04 Apr 5.1 23:28:36 10° WSW 23:34:27 42° NW 23:41:03 10° NNE visible
05 Apr 6.8 01:33:13 10° NW 01:37:04 15° NNW 01:41:11 10° NNE visible
05 Apr 7.0 03:36:31 10° NNW 03:41:03 16° NNE 03:46:19 10° NE visible
05 Apr 6.3 05:36:12 10° NNW 05:43:50 42° NE 05:53:27 10° ESE visible
05 Apr 5.0 20:48:32 10° SSE 20:52:58 22° ESE 20:57:49 10° ENE visible
05 Apr 4.4 22:46:13 10° SW 22:52:18 62° NW 22:59:09 10° NNE visible
06 Apr 6.6 00:49:49 10° WNW 00:54:17 18° NNW 00:59:05 10° NNE visible
06 Apr 7.0 02:54:20 10° NNW 02:58:09 14° N 03:02:27 10° NE visible
06 Apr 6.6 04:54:25 10° NNW 05:01:26 32° NE 05:10:09 10° E visible
06 Apr 3.9 22:04:12 10° SSW 22:10:20 88° ESE 22:17:12 10° NNE visible
07 Apr 6.2 00:06:34 10° W 00:11:36 23° NNW 00:17:09 10° NNE visible
07 Apr 7.0 02:11:46 10° NNW 02:15:12 14° N 02:18:57 10° NNE visible
07 Apr 6.8 04:12:37 10° NNW 04:18:52 25° NNE 04:26:31 10° E visible
07 Apr 5.4 06:12:08 10° NNW 06:20:37 73° NE 06:31:26 10° SE visible
07 Apr 4.0 21:22:35 10° SSW 21:28:32 57° ESE 21:35:06 10° NE visible
07 Apr 5.8 23:23:34 10° W 23:29:06 31° NW 23:35:17 10° NNE visible
08 Apr 7.0 01:28:45 10° NW 01:32:16 14° N 01:36:01 10° NNE visible
08 Apr 7.0 03:30:45 10° NNW 03:36:11 20° NNE 03:42:40 10° ENE visible
08 Apr 5.8 05:30:18 10° NNW 05:38:28 55° NE 05:48:51 10° SE visible
08 Apr 4.5 20:41:26 10° S 20:46:51 35° ESE 20:52:49 10° NE visible
08 Apr 5.2 22:40:52 10° WSW 22:46:45 43° NW 22:53:25 10° NNE visible
09 Apr 6.9 00:45:25 10° NW 00:49:23 15° NNW 00:53:36 10° NNE visible
09 Apr 7.1 02:48:47 10° NNW 02:53:21 17° NNE 02:58:42 10° NE visible
09 Apr 6.2 04:48:30 10° NNW 04:56:12 41° NE 05:05:53 10° ESE visible
09 Apr 4.5 21:58:30 10° SW 22:04:36 63° NW 22:11:31 10° NNE visible
